Hourly Data Report for September 16, 2021

TORONTO CITY
ONTARIO
Current Station Operator: ECCC - MSC

43°40'00.000" N
79°24'00.000" W
112.50 m
6158355
71508
XTO

Download Data

Hourly Data (September 2021)
Hourly Data Report for September 16, 2021
TIME
LST
Temp Definition
°C
Dew Point Definition
°C
Rel Hum Definition
%
Precip. Amount Definition
mm

Wind Dir Definition
10's deg

Wind Spd Definition
km/h
Visibility Definition
km
Stn Press Definition
kPa
Hmdx Definition


Wind Chill Definition


Weather Definition


00:00 17.7 13.1 75 0.0       100.62     LegendNANA
01:00 16.7 13.3 80 0.0       100.62     LegendNANA
02:00 17.1 13.0 77 0.0       100.68     LegendNANA
03:00 16.9 12.4 75 0.0       100.68     LegendNANA
04:00 16.5 12.7 78 0.0       100.74     LegendNANA
05:00 17.2 12.6 74 0.0       100.82     LegendNANA
06:00 17.2 11.4 69 0.0       100.89     LegendNANA
07:00 17.3 10.9 66 0.0       100.96     LegendNANA
08:00 18.9 12.0 64 0.0       101.00     LegendNANA
09:00 19.9 12.3 62 0.0       101.01     LegendNANA
10:00 20.0 15.2 74 0.0       101.06     LegendNANA
11:00 20.8 16.4 76 0.0       101.05 26   LegendNANA
12:00 21.7 15.1 66 0.0       101.03 26   LegendNANA
13:00 22.4 16.0 67 0.0       101.01 27   LegendNANA
14:00 22.2 10.5 48 0.0       100.97     LegendNANA
15:00 21.5 13.1 59 0.0       100.94     LegendNANA
16:00 21.1 14.1 64 0.0       100.92 25   LegendNANA
17:00 20.9 13.6 63 0.0       100.88     LegendNANA
18:00 20.5 13.7 65 0.0       100.88     LegendNANA
19:00 19.8 13.2 65 0.0       100.90     LegendNANA
20:00 19.7 13.4 67 0.0       100.93     LegendNANA
21:00 19.5 13.4 68 0.0       100.94     LegendNANA
22:00 19.5 13.4 68 0.0       100.89     LegendNANA
23:00 19.1 14.7 76 0.0       100.84     LegendNANA

Notes on Data Quality.

Legend

  • E = Estimated
  • M = Missing
  • NA = Not Available*
  • [empty] = Indicates an unobserved value
Date modified: